Voltar ao catálogo

TIROS 8

AtivoMeteoLEO
NORAD 716·PAYLOAD·🇺🇸 United States

Lançado Dec 21, 1963 de Vandenberg Space Force Base

Loading…

Próximas Passagens (próximas 24 horas)

TLE

AtualizadoSource: Space-Track

Época: Sep 14, 2026, 11:17 UTC

1 00716U 63054A   26257.47018442  .00000196  00000-0  59254-4 0  9999
2 00716  58.4937  65.4327 0024780  32.5219 327.7341 14.73251327328872

Acompanhe TIROS 8 em tempo real com AllMySat

Download on the App Store